[[{"header":{"parameterUnit":"m.s-1","parameterCategory":1,"la1":30.2991,"la2":30.254,"lo1":-89.0895,"lo2":-89.0444,"dy":0.0017,"dx":0.0017,"nx":28,"ny":28,"refTime":"2025-03-22T09:00:00:Z","depth":0,"parameterNumber":2,"parameterNumberName":"U-component_of_WINDS"},"data":[0,0,0,0,0,0,0,0,0,0,0,0,0,0,0,0,0,0,0,0,0,0,0,0,0,0,0,0,0,0,0,0,0,0,0,0,0,0,0,0,0,0,0,0,0,0,0,0,0,0,0,0,0,0,0,0,0,0,-2.2,-2.2,0,-2.2013,-2.2013,-2.2013,-2.1968,-2.1966,-2.1965,-2.1964,-2.1978,-2.198,-2.1981,0,0,0,0,0,0,0,0,0,0,0,0,0,-2.1938,-2.194,-2.2,-2.2,-2.2,-2.2013,-2.2013,-2.2013,-2.1968,-2.1966,-2.1965,-2.1963,-2.1978,-2.1979,-2.1981,0,0,0,0,0,0,0,0,0,0,0,0,0,-2.196,-2.194,-2.2,-2.1979,-2.1978,-2.2013,-2.2013,-2.2013,-2.1968,-2.1966,-2.1964,-2.1962,-2.1977,-2.1979,-2.1982,-2.2038,0,0,-2.1989,-2.199,0,0,0,0,0,0,0,0,-2.1959,-2.1962,-2.1982,-2.1981,-2.1979,-2.1987,-2.1997,-2.2022,-2.1969,-2.1972,-2.1964,-2.1961,-2.1983,-2.1985,-2.1991,-2.2039,-2.2039,-2.199,-2.1991,-2.1992,-2.1993,0,0,0,0,0,0,0,-2.1957,-2.1961,-2.2005,-2.1983,-2.1981,-2.197,-2.1971,-2.2001,-2.1989,-2.1972,-2.1968,-2.197,-2.1981,-2.1989,-2.1991,-2.204,-2.1989,-2.1992,-2.1993,-2.1994,-2.2135,-2.2137,0,0,0,0,0,0,-2.1958,-2.196,-2.2005,-2.2006,-2.1963,-2.1973,-2.1974,-2.1986,-2.1988,-2.1987,-2.1972,-2.1968,-2.1986,-2.1989,-2.1992,-2.2058,-2.1992,-2.1994,-2.1996,-2.2133,-2.2136,-2.2138,0,0,0,0,0,0,-2.1957,-2.1963,-2.2004,-2.1982,-2.1987,-2.1976,-2.1991,-2.1988,-2.1995,-2.1989,-2.1986,-2.1982,-2.1984,-2.1988,-2.2027,-2.2058,-2.1996,-2.1998,-2.213,-2.2134,-2.2137,-2.2192,0,0,0,0,0,0,-2.1955,-2.1962,-2.1983,-2.1983,-2.1988,-2.2039,-2.1993,-2.1989,-2.2,-2.1995,-2.1998,-2.1996,-2.1983,-2.2024,-2.203,-2.2061,-2.2,-2.2127,-2.2132,-2.2136,-2.2187,-2.2197,-2.2205,0,0,0,0,0,-2.1953,-2.1998,-2.1984,-2.199,-2.2014,-2.2041,-2.2044,-2.2028,-2.2002,-2.2023,-2.2019,-2.1996,-2.2054,-2.2028,-2.2034,-2.2067,-2.2125,-2.213,-2.2135,-2.2183,-2.2195,-2.2205,0,0,0,0,0,0,-2.2002,-2.1998,-2.1982,-2.2028,-2.2035,-2.2033,-2.2059,-2.204,-2.2055,-2.205,-2.203,-2.2031,-2.2073,-2.2074,-2.2045,-2.2122,-2.2085,-2.2092,-2.212,-2.2131,-2.2139,-2.2138,-2.2002,0,0,0,0,0,-2.2018,-2.204,-2.2035,-2.2076,-2.2081,-2.207,-2.2081,-2.2068,-2.2075,-2.2077,-2.2076,-2.2084,-2.2104,-2.2117,-2.2135,-2.2188,-2.2188,-2.2213,-2.2222,-2.2229,-2.2235,-2.2263,-2.2275,-2.2155,-2.2155,-2.2155,0,0,-2.2052,-2.2052,-2.2067,-2.2086,-2.209,-2.2114,-2.2072,-2.2099,-2.2117,-2.2081,-2.2118,-2.2118,-2.2125,-2.2171,-2.2191,-2.2173,-2.2268,-2.2236,-2.2241,-2.2243,-2.227,-2.2281,-2.2291,-2.2158,-2.2157,-2.2157,0,0,-2.2125,-2.2127,-2.2162,-2.2167,-2.2173,-2.2166,-2.2175,-2.2176,-2.2174,-2.221,-2.2185,-2.2206,-2.2241,-2.2247,-2.2255,-2.2333,-2.2312,-2.2339,-2.2385,-2.2413,-2.2423,-2.2431,-2.2459,-2.2469,-2.2345,-2.2346,-2.2346,0,-2.2165,-2.22,-2.2182,-2.2211,-2.222,-2.219,-2.2226,-2.2232,-2.2244,-2.2252,-2.2231,-2.2275,-2.2278,-2.2325,-2.2344,-2.2352,-2.2361,-2.2339,-2.2423,-2.2431,-2.2438,-2.2465,-2.2476,-2.2349,-2.2348,-2.2348,-2.2348,0,-2.225,-2.2274,-2.2302,-2.2315,-2.2327,-2.236,-2.2347,-2.2363,-2.235,-2.2345,-2.2383,-2.2385,-2.2404,-2.2414,-2.2401,-2.2461,-2.2449,-2.2426,-2.2389,-2.2453,-2.2478,-2.2488,-2.2353,-2.2352,-2.2351,-2.2351,0,0,-2.2353,-2.2356,-2.2367,-2.2372,-2.2378,-2.2397,-2.2429,-2.2447,-2.2461,-2.2471,-2.2497,-2.2528,-2.2507,-2.2516,-2.2504,-2.2529,-2.2591,-2.2503,-2.2503,-2.2519,-2.2657,-2.2674,-2.2686,-2.2578,-2.258,-2.2581,-2.2657,0,-2.2425,-2.2478,-2.2463,-2.2517,-2.254,-2.2512,-2.2539,-2.2547,-2.2543,-2.2563,-2.256,-2.2582,-2.2552,-2.2558,-2.2581,-2.2578,-2.2618,-2.2573,-2.2602,-2.2604,-2.2601,-2.2699,-2.2717,-2.2788,-2.2666,-2.2668,-2.2669,0,-2.2515,-2.2529,-2.2585,-2.2588,-2.2597,-2.2622,-2.2638,-2.2657,-2.2665,-2.2661,-2.2672,-2.2655,-2.2687,-2.2651,-2.2695,-2.2664,-2.2676,-2.2677,-2.2679,-2.2681,-2.264,-2.2703,-2.281,-2.2821,-2.2684,-2.2683,-2.2681,0,-2.2585,-2.2617,-2.2655,-2.2661,-2.2666,-2.2684,-2.2687,-2.2693,-2.2705,-2.2719,-2.2727,-2.2746,-2.2755,-2.277,-2.2759,-2.2734,-2.2806,-2.2768,-2.2804,-2.2804,-2.282,-2.2819,-2.293,-2.2828,-2.2827,-2.2827,-2.2827,0,-2.2666,-2.2702,-2.2687,-2.271,-2.2749,-2.2733,-2.2772,-2.2772,-2.2778,-2.2801,-2.2779,-2.2801,-2.2786,-2.2807,-2.2799,-2.2837,-2.2842,-2.284,-2.2837,-2.2842,-2.2842,-2.2849,-2.2843,-2.283,-2.2829,-2.2829,-2.2828,0,-2.275,-2.2742,-2.2781,-2.2783,-2.2784,-2.2813,-2.2814,-2.2836,-2.2832,-2.2862,-2.2868,-2.2861,-2.2886,-2.2877,-2.2902,-2.2897,-2.2946,-2.2937,-2.2943,-2.2941,-2.2977,-2.2974,-2.3096,-2.3111,-2.3,-2.3001,-2.3002,0,-2.2803,-2.2829,-2.2834,-2.2848,-2.2852,-2.2875,-2.2887,-2.2873,-2.2887,-2.29,-2.292,-2.2943,-2.296,-2.3,-2.2998,-2.3018,-2.3009,-2.3051,-2.3012,-2.3016,-2.301,-2.3009,-2.3012,-2.3058,-2.306,-2.3061,-2.3062,0,-2.2897,-2.2892,-2.291,-2.2928,-2.2944,-2.2957,-2.2968,-2.2981,-2.2968,-2.2985,-2.301,-2.3023,-2.305,-2.3072,-2.3091,-2.3094,-2.3076,-2.3074,-2.3083,-2.3088,-2.3091,-2.309,-2.2964,-2.3071,-2.307,-2.3069,-2.3069,-2.3068,-2.2967,-2.2989,-2.2996,-2.3018,-2.3026,-2.3037,-2.3058,-2.3057,-2.3077,-2.3097,-2.3088,-2.3117,-2.3126,-2.3148,-2.3155,-2.3177,-2.3161,-2.3175,-2.3178,-2.3182,-2.3187,-2.3087,-2.3181,-2.318,-2.318,-2.318,-2.318,0,-2.306,-2.3063,-2.3084,-2.31,-2.3118,-2.31,-2.3112,-2.3128,-2.3153,-2.3163,-2.318,-2.3209,-2.3232,-2.3232,-2.3253,-2.3271,-2.3264,-2.3277,-2.3276,-2.3277,-2.32,-2.3189,-2.3283,-2.3283,-2.3283,-2.3283,-2.3283,-2.3283,-2.311,-2.3148,-2.3144,-2.3185,-2.3188,-2.3216,-2.3225,-2.3236,-2.3243,-2.3277,-2.3295,-2.3295,-2.3301,-2.3323,-2.3343,-2.3343,-2.3351,-2.3368,-2.3365,-2.3293,-2.3282,-2.3272,-2.3263,-2.337,-2.3371,-2.344,-2.3441,-2.3441]},{"header":{"parameterUnit":"m.s-1","parameterCategory":1,"la1":30.2991,"la2":30.254,"lo1":-89.0895,"lo2":-89.0444,"dy":0.0017,"dx":0.0017,"nx":28,"ny":28,"refTime":"2025-03-22T09:00:00:Z","depth":0,"parameterNumber":3,"parameterNumberName":"V-component_of_WINDS"},"data":[0,0,0,0,0,0,0,0,0,0,0,0,0,0,0,0,0,0,0,0,0,0,0,0,0,0,0,0,0,0,0,0,0,0,0,0,0,0,0,0,0,0,0,0,0,0,0,0,0,0,0,0,0,0,0,0,0,0,4.5851,4.5852,0,4.593,4.5931,4.5932,4.586,4.5857,4.5854,4.5851,4.5929,4.5934,4.5939,0,0,0,0,0,0,0,0,0,0,0,0,0,4.5637,4.5642,4.5851,4.5852,4.5853,4.593,4.5931,4.5932,4.586,4.5857,4.5853,4.585,4.5928,4.5933,4.5939,0,0,0,0,0,0,0,0,0,0,0,0,0,4.5724,4.5643,4.5851,4.5827,4.5825,4.5929,4.5931,4.5932,4.5861,4.5857,4.5852,4.5848,4.5926,4.5933,4.594,4.6071,0,0,4.5962,4.5965,0,0,0,0,0,0,0,0,4.572,4.5732,4.5829,4.5829,4.5827,4.5881,4.5884,4.5979,4.5862,4.5847,4.5851,4.5846,4.5916,4.5924,4.5948,4.6075,4.6078,4.5962,4.5967,4.597,4.5972,0,0,0,0,0,0,0,4.5714,4.5729,4.5882,4.5831,4.583,4.5811,4.5819,4.5901,4.5905,4.5848,4.5843,4.5854,4.5915,4.5942,4.595,4.6079,4.5962,4.5969,4.5973,4.5976,4.6318,4.6323,0,0,0,0,0,0,4.571,4.5724,4.588,4.5884,4.5762,4.5819,4.5827,4.5868,4.5904,4.5906,4.5857,4.585,4.5931,4.5941,4.5952,4.6109,4.597,4.5977,4.5981,4.6313,4.6319,4.6324,0,0,0,0,0,0,4.5706,4.5725,4.5876,4.5803,4.5821,4.5827,4.5873,4.5872,4.5898,4.5911,4.5911,4.5884,4.5928,4.5942,4.6042,4.611,4.598,4.5986,4.6308,4.6315,4.6322,4.6423,0,0,0,0,0,0,4.57,4.5724,4.5774,4.5805,4.5825,4.5966,4.5877,4.5876,4.5911,4.5902,4.5936,4.5937,4.5926,4.6032,4.605,4.6118,4.5992,4.6302,4.6311,4.632,4.6413,4.6432,4.6449,0,0,0,0,0,4.5693,4.5799,4.5777,4.5796,4.5888,4.597,4.5982,4.5967,4.5917,4.5967,4.5976,4.5936,4.61,4.6043,4.6062,4.6134,4.6297,4.6308,4.6319,4.6405,4.6429,4.6448,0,0,0,0,0,0,4.5775,4.5802,4.5779,4.5898,4.5933,4.5958,4.6021,4.5992,4.6042,4.6031,4.601,4.6019,4.6125,4.6139,4.6075,4.6263,4.619,4.6206,4.625,4.6272,4.6289,4.6284,4.5998,0,0,0,0,0,4.5807,4.5872,4.5892,4.5995,4.6014,4.6015,4.605,4.6036,4.6071,4.6085,4.6101,4.6135,4.6195,4.6234,4.6289,4.6415,4.6421,4.6474,4.6491,4.6506,4.6519,4.6587,4.6611,4.636,4.636,4.636,0,0,4.5874,4.5897,4.5939,4.6012,4.6038,4.6105,4.6028,4.6102,4.6152,4.6096,4.6192,4.6205,4.6242,4.6356,4.6407,4.6371,4.659,4.652,4.6531,4.6536,4.6601,4.6624,4.6646,4.6367,4.6366,4.6365,0,0,4.603,4.6054,4.6143,4.617,4.621,4.621,4.6231,4.6262,4.6269,4.6365,4.6325,4.6383,4.6486,4.6514,4.6542,4.6711,4.6676,4.6729,4.6822,4.6888,4.6908,4.6925,4.6986,4.7007,4.6742,4.6742,4.6743,0,4.6107,4.6208,4.6192,4.627,4.6303,4.6257,4.6347,4.6374,4.6429,4.6453,4.6412,4.6541,4.6563,4.6683,4.6724,4.6748,4.6772,4.6725,4.6907,4.6924,4.694,4.6997,4.702,4.6749,4.6748,4.6747,4.6747,0,4.6301,4.6372,4.6439,4.6495,4.6536,4.662,4.6616,4.6659,4.6642,4.6646,4.6745,4.677,4.683,4.6857,4.684,4.6976,4.6952,4.691,4.6836,4.697,4.7024,4.7045,4.6757,4.6755,4.6753,4.6752,0,0,4.651,4.6558,4.6583,4.6608,4.6649,4.6703,4.6784,4.6844,4.6882,4.6922,4.6989,4.7078,4.7039,4.7071,4.7057,4.7115,4.7248,4.7065,4.7066,4.7099,4.7398,4.743,4.7456,4.7225,4.7229,4.7233,4.7395,0,4.6668,4.6811,4.6799,4.6934,4.6999,4.6956,4.7027,4.706,4.7067,4.7122,4.7128,4.7192,4.7136,4.7155,4.7211,4.722,4.7307,4.7208,4.7288,4.7291,4.728,4.7484,4.7517,4.767,4.7416,4.7419,4.7422,0,4.6871,4.692,4.7061,4.7094,4.712,4.7185,4.7239,4.7293,4.7329,4.7329,4.7366,4.7342,4.7424,4.7349,4.7461,4.7394,4.7426,4.7435,4.7441,4.7448,4.7364,4.7496,4.7718,4.7741,4.7455,4.7452,4.745,0,4.701,4.711,4.7208,4.7231,4.7271,4.7318,4.7336,4.7368,4.7405,4.7452,4.7476,4.7531,4.7562,4.7605,4.7597,4.7543,4.7712,4.7636,4.7714,4.7714,4.7751,4.7749,4.7981,4.7772,4.7772,4.7771,4.7771,0,4.7187,4.7275,4.7272,4.7332,4.743,4.7415,4.7512,4.7525,4.7554,4.7616,4.7582,4.764,4.7626,4.7684,4.7678,4.7772,4.7786,4.7789,4.7786,4.7792,4.7792,4.7812,4.7802,4.7777,4.7776,4.7775,4.7774,0,4.7358,4.7359,4.7463,4.7493,4.7503,4.7574,4.7599,4.7655,4.7659,4.7738,4.7756,4.7762,4.7828,4.7825,4.79,4.7896,4.8012,4.7997,4.8,4.7997,4.8075,4.8068,4.8329,4.8362,4.8131,4.8134,4.8135,0,4.7471,4.7538,4.7576,4.7616,4.7638,4.7702,4.774,4.7728,4.7769,4.7816,4.7867,4.7931,4.7981,4.8089,4.81,4.8157,4.8143,4.8231,4.8151,4.8155,4.8145,4.8141,4.8147,4.8246,4.8249,4.8251,4.8252,0,4.7672,4.767,4.7726,4.7784,4.783,4.7874,4.7915,4.7949,4.7941,4.7989,4.8057,4.8096,4.8173,4.8237,4.8292,4.831,4.8281,4.8278,4.8299,4.8305,4.8304,4.8306,4.8043,4.8271,4.827,4.8268,4.8267,4.8266,4.7818,4.7876,4.7912,4.7976,4.8006,4.8045,4.81,4.8112,4.8169,4.8231,4.8221,4.8298,4.8332,4.8403,4.8427,4.8486,4.8455,4.8485,4.8493,4.8501,4.851,4.8295,4.8496,4.8495,4.8495,4.8494,4.8494,0,4.8017,4.8038,4.8098,4.8156,4.8207,4.8176,4.8219,4.8263,4.8332,4.8367,4.8418,4.8497,4.8559,4.8575,4.8634,4.8678,4.8666,4.8694,4.8691,4.8696,4.8534,4.851,4.8703,4.8703,4.8703,4.8703,4.8703,4.8703,4.8127,4.8224,4.8226,4.8337,4.8358,4.8434,4.8461,4.8497,4.8525,4.8615,4.8667,4.8677,4.8705,4.8766,4.8821,4.8824,4.8848,4.8882,4.8879,4.8728,4.8707,4.8687,4.8664,4.8887,4.8887,4.9036,4.9037,4.9038]}]]